Wetbulb
69.19 71.55 73.88 73.37 72.48 73.16 73.78 74.10 74.23 74.01 74.34 73.87 73.51 73.43 73.36 72.99 72.48 71.98 71.79 71.99 73.64 72.68 72.41 72.19 71.95 71.80 71.54 71.28 71.51 71.46 71.85 72.39 72.09 71.98 71.42 71.29 70.96 70.87 70.93 71.66 71.21 70.89 72.78
69.88 71.58 73.95 73.84 73.40 72.71 73.29 73.57 73.69 73.85 73.86 74.19 73.37 72.85 72.90 73.21 72.28 71.72 71.68 71.48 71.81 71.87 72.24 71.98 71.81 72.26 71.86 71.34 71.24 71.52 71.73 71.30 71.79 71.08 70.33 70.47 71.11 71.22 70.19 71.69 71.17 70.73 72.38
69.84 71.07 72.09 73.94 73.76 73.62 73.16 72.81 73.25 73.28 73.80 73.93 74.00 72.99 73.07 73.23 72.33 72.21 71.85 72.09 72.48 72.27 72.33 72.61 72.48 72.14 71.66 71.54 71.67 71.71 71.32 70.97 71.50 70.62 69.98 67.36 68.05 71.04 71.07 72.06 71.60 70.96 71.61
69.58 70.43 70.96 73.41 73.59 73.23 73.08 72.94 72.70 72.53 72.92 73.56 73.38 72.98 72.88 72.85 72.58 72.24 72.19 72.75 73.31 72.90 73.05 72.79 72.45 72.26 72.17 71.95 71.34 71.11 71.07 70.57 70.49 70.08 68.86 66.93 66.77 70.31 70.67 70.81 71.19 70.96 70.68
68.43 69.75 71.13 72.71 72.77 72.80 72.52 72.88 72.68 72.67 72.49 73.14 73.48 73.15 72.94 72.72 72.97 72.52 72.71 73.18 73.03 73.16 72.78 72.26 72.14 72.05 72.03 71.64 71.27 71.12 70.77 70.42 69.45 67.82 66.63 67.35 68.43 71.02 70.83 71.28 71.39 71.53 71.67
65.19 67.41 69.89 71.14 71.05 72.20 72.43 72.43 72.26 72.11 72.22 72.50 72.70 72.95 72.85 72.60 72.44 72.24 72.66 72.49 72.21 72.85 72.59 71.95 72.10 71.54 71.58 71.72 71.02 71.05 70.80 70.40 69.00 65.55 69.01 70.42 68.82 71.75 71.95 72.00 71.66 71.56 71.55
59.85 63.25 64.96 69.09 70.90 71.19 72.17 72.12 71.97 72.00 72.25 71.99 72.05 72.09 72.03 72.20 72.36 72.11 72.25 71.88 71.88 71.91 71.85 72.01 71.46 70.95 70.56 70.74 70.46 70.28 70.40 69.60 67.29 65.95 68.72 68.19 68.43 71.26 71.49 71.42 71.32 71.12 71.50
57.10 58.68 60.18 64.89 67.61 70.22 71.29 71.86 72.10 71.94 71.99 72.28 72.11 71.78 72.19 72.30 71.88 71.92 71.85 71.90 71.62 71.61 71.83 71.40 71.03 70.57 70.09 69.90 69.45 69.72 69.69 68.07 66.00 67.27 67.81 67.70 69.90 70.25 70.60 70.64 70.43 70.45 70.29
57.06 57.01 57.02 58.67 61.98 65.21 67.48 68.57 69.43 70.46 71.72 71.84 71.88 71.60 71.22 71.44 71.47 71.62 71.12 71.23 71.64 71.69 71.42 71.51 71.49 70.95 70.61 70.46 70.30 70.04 69.05 67.33 64.29 68.41 68.73 68.10 70.19 70.32 69.93 69.61 69.48 69.49 69.28
56.46 56.22 55.82 56.11 56.98 58.41 60.02 65.05 66.20 67.58 68.64 70.04 70.38 70.00 69.02 68.67 69.64 70.67 70.11 70.27 70.96 71.40 71.12 71.25 71.53 71.13 71.03 70.94 70.44 69.48 67.92 67.36 65.39 66.78 67.67 67.89 70.64 69.84 68.87 68.13 68.68 68.84 68.40
56.67 55.70 55.76 55.91 56.35 56.42 57.45 61.78 62.90 64.53 66.50 67.53 68.22 67.57 67.34 67.22 67.46 68.48 68.08 68.36 69.76 70.67 70.87 71.15 71.59 71.01 70.08 69.06 69.17 68.18 66.84 66.12 66.60 65.86 65.70 68.78 70.10 69.53 68.50 67.56 68.02 67.90 67.76
55.55 56.16 56.08 56.26 56.56 57.08 59.45 56.93 57.47 61.03 61.53 62.77 65.41 66.63 66.59 66.11 66.43 67.72 66.42 66.65 69.00 69.63 69.71 70.52 70.90 70.27 68.48 67.23 67.26 66.64 64.98 65.36 66.31 67.30 66.63 68.54 69.45 69.38 68.35 67.45 67.39 67.20 67.25
55.75 55.54 56.47 56.47 56.41 56.50 56.86 56.77 56.72 56.94 57.56 57.80 58.27 60.93 66.56 67.29 66.47 67.39 67.55 66.60 66.75 66.19 67.49 68.57 68.64 68.40 67.17 66.47 65.88 65.27 64.73 63.76 63.62 65.79 65.97 68.32 69.43 69.31 68.79 68.10 67.08 67.06 67.22
54.10 54.99 56.27 56.21 56.43 56.56 56.83 56.23 56.43 56.12 56.47 56.57 57.57 59.61 58.69 65.77 65.63 65.89 67.00 67.51 66.10 66.09 66.32 66.43 65.14 66.54 66.26 65.93 64.80 64.51 63.70 63.30 60.83 64.03 65.55 66.60 69.07 69.28 68.98 68.73 68.07 67.46 68.01
53.99 55.65 56.01 56.48 56.18 56.96 57.02 56.65 56.43 56.30 56.55 57.03 57.79 59.19 59.01 60.57 63.59 65.03 65.35 65.36 65.82 65.91 65.69 65.77 64.66 64.20 65.32 65.40 64.55 63.93 63.10 62.53 60.62 62.33 64.00 64.28 67.00 68.81 69.57 69.21 69.09 67.93 68.70
54.36 54.80 56.45 57.05 56.78 57.05 56.41 56.78 56.93 57.00 57.30 57.53 57.89 58.93 59.96 58.78 60.14 63.36 64.35 65.34 66.36 66.67 66.08 65.44 65.44 63.62 63.63 64.60 63.78 63.84 63.38 61.66 60.24 60.12 62.74 62.86 65.12 66.44 68.78 69.01 69.38 68.31 69.08
54.08 55.12 56.24 56.88 57.02 56.00 56.20 56.49 56.79 57.39 58.17 57.78 58.39 59.07 59.72 59.90 58.90 59.74 61.62 63.21 64.11 65.95 66.29 66.09 65.01 63.94 62.43 62.64 61.56 63.12 62.39 61.40 60.68 59.78 62.12 62.03 63.14 63.54 66.62 68.74 68.94 69.16 69.33
54.24 54.85 56.43 57.63 56.74 56.30 56.27 56.88 57.22 56.89 57.38 57.65 58.28 58.69 59.77 60.23 59.91 58.61 59.33 60.12 62.27 63.91 65.69 64.06 64.67 64.09 63.86 62.06 61.15 61.74 62.49 61.68 60.58 60.55 60.99 61.77 61.46 63.51 64.76 66.72 67.58 68.74 69.00
54.23 54.87 55.18 55.65 55.27 56.39 56.44 56.79 56.91 57.31 56.85 57.27 57.90 58.45 59.09 59.75 60.22 58.76 58.62 59.35 60.29 61.34 61.92 62.59 63.83 64.06 63.25 62.22 62.19 61.93 61.53 61.12 61.08 60.79 60.60 60.95 62.05 62.41 63.38 64.20 64.91 65.66 67.00
52.60 53.94 55.67 56.31 56.09 55.34 55.73 56.13 56.34 56.30 56.81 56.98 57.09 57.88 58.75 58.75 58.95 58.37 58.19 58.52 59.82 59.04 59.90 60.50 62.78 62.90 62.74 61.57 61.81 61.25 60.63 61.30 61.24 60.53 59.72 61.60 61.67 61.96 62.84 62.62 63.15 63.63 64.41
51.57 52.48 54.89 54.30 54.44 54.46 53.80 53.57 53.83 52.47 53.64 55.34 56.49 57.52 57.72 57.87 58.28 57.39 57.54 57.70 57.93 57.39 58.82 59.65 59.59 61.46 61.21 62.20 60.88 58.82 58.23 58.72 59.89 60.96 60.98 60.10 60.54 61.20 62.69 62.46 62.45 63.06 63.67
50.69 52.04 53.59 53.93 53.93 54.39 54.68 54.12 54.23 54.08 53.60 53.98 55.07 56.10 57.15 57.05 57.00 56.55 55.74 55.73 56.60 56.71 56.81 57.16 59.36 57.62 59.92 60.78 57.95 56.32 53.91 55.62 57.37 59.74 60.15 59.84 59.40 61.42 61.84 62.39 61.46 60.36 61.48
49.44 51.74 52.75 52.60 53.16 53.95 54.84 54.79 53.82 53.25 52.74 52.83 54.13 54.88 55.45 56.44 56.83 56.61 56.05 55.57 55.43 55.44 54.94 55.90 56.51 58.43 56.73 59.52 59.41 55.54 50.36 51.70 54.46 54.71 58.00 58.76 58.72 60.68 61.00 61.15 59.83 59.38 59.90
50.62 51.12 52.40 53.97 54.62 54.72 54.86 53.13 53.26 51.40 49.64 51.86 53.08 54.57 55.00 56.80 55.87 55.78 55.69 55.01 54.32 55.02 54.86 54.87 56.25 55.84 57.39 56.96 58.46 58.61 54.95 54.25 52.29 49.43 52.76 56.32 58.38 59.28 59.52 58.50 58.56 58.42 58.47
51.91 52.07 53.02 53.66 54.36 54.78 54.35 53.33 52.96 52.55 51.41 52.64 53.55 53.25 53.97 54.82 55.02 54.71 53.95 53.44 53.30 53.56 53.80 54.43 54.55 54.73 57.11 55.61 56.14 53.26 54.18 53.38 52.80 50.23 50.73 51.66 54.88 56.47 58.77 59.05 57.56 58.19 58.46
51.16 51.54 52.90 53.29 53.84 54.31 54.48 54.75 53.95 52.85 52.20 52.06 51.85 51.63 51.94 52.59 53.69 55.26 55.30 54.58 54.48 54.16 53.24 52.93 53.85 54.41 54.82 56.65 56.60 56.33 55.87 53.40 52.39 51.41 50.22 53.05 54.04 54.64 55.95 56.71 57.33 57.37 57.74
MSLP
1012.45 1012.80 1013.16 1013.33 1013.50 1013.67 1013.82 1013.89 1014.05 1014.35 1014.48 1014.73 1014.93 1015.15 1015.41 1015.58 1015.70 1015.81 1015.98 1016.06 1016.10 1016.15 1016.28 1016.51 1016.73 1016.85 1016.97 1017.10 1017.25 1017.39 1017.51 1017.71 1017.92 1018.07 1018.19 1018.23 1018.33 1018.41 1018.51 1018.54 1018.69 1018.75 1018.78
1012.12 1012.70 1013.20 1013.44 1013.63 1013.82 1014.00 1014.19 1014.30 1014.44 1014.60 1014.85 1015.12 1015.32 1015.55 1015.71 1015.87 1015.95 1016.13 1016.25 1016.37 1016.40 1016.47 1016.66 1016.86 1017.02 1017.17 1017.36 1017.58 1017.71 1017.87 1018.08 1018.27 1018.45 1018.57 1018.66 1018.75 1018.78 1018.73 1018.89 1019.07 1019.07 1019.18
1012.05 1012.67 1013.17 1013.49 1013.70 1013.93 1014.13 1014.35 1014.49 1014.63 1014.77 1015.01 1015.15 1015.47 1015.67 1015.80 1015.96 1016.09 1016.28 1016.38 1016.48 1016.59 1016.69 1016.90 1017.10 1017.25 1017.46 1017.70 1017.91 1018.03 1018.22 1018.32 1018.41 1018.53 1018.62 1018.88 1019.10 1019.08 1019.05 1019.18 1019.34 1019.47 1019.60
1011.65 1012.41 1013.17 1013.58 1013.79 1014.04 1014.28 1014.49 1014.63 1014.82 1014.90 1015.12 1015.33 1015.51 1015.73 1015.87 1016.11 1016.22 1016.41 1016.53 1016.64 1016.82 1016.97 1017.19 1017.42 1017.61 1017.86 1018.08 1018.21 1018.31 1018.44 1018.45 1018.56 1018.71 1018.79 1018.81 1019.10 1019.33 1019.37 1019.45 1019.55 1019.71 1019.92
1012.13 1012.81 1013.44 1013.72 1013.90 1014.08 1014.31 1014.51 1014.71 1014.87 1015.05 1015.24 1015.40 1015.58 1015.81 1016.01 1016.14 1016.33 1016.50 1016.68 1016.80 1016.98 1017.28 1017.46 1017.71 1017.93 1018.15 1018.33 1018.47 1018.55 1018.66 1018.67 1018.67 1018.76 1018.88 1018.92 1019.20 1019.40 1019.55 1019.63 1019.71 1019.91 1020.08
1012.50 1013.11 1013.67 1013.93 1014.03 1014.14 1014.32 1014.52 1014.73 1014.91 1015.09 1015.27 1015.44 1015.65 1015.81 1016.08 1016.26 1016.45 1016.55 1016.78 1016.96 1017.16 1017.40 1017.71 1017.88 1018.09 1018.37 1018.56 1018.71 1018.82 1018.91 1018.91 1018.80 1018.93 1018.73 1019.05 1019.43 1019.57 1019.65 1019.67 1019.94 1020.18 1020.30
1012.72 1013.19 1013.71 1014.02 1014.09 1014.24 1014.41 1014.56 1014.72 1014.87 1015.08 1015.26 1015.46 1015.62 1015.83 1016.03 1016.25 1016.50 1016.68 1016.83 1017.08 1017.36 1017.58 1017.77 1018.01 1018.23 1018.50 1018.71 1018.84 1018.99 1019.08 1019.07 1019.03 1019.13 1018.96 1019.42 1019.68 1019.70 1019.85 1020.03 1020.10 1020.38 1020.65
1012.61 1013.12 1013.60 1014.02 1014.16 1014.28 1014.46 1014.61 1014.75 1014.87 1014.99 1015.17 1015.38 1015.55 1015.73 1015.97 1016.22 1016.46 1016.64 1016.88 1017.11 1017.40 1017.65 1017.82 1018.11 1018.35 1018.60 1018.79 1018.97 1019.18 1019.25 1019.20 1019.15 1019.26 1019.26 1019.67 1019.82 1020.01 1020.09 1020.31 1020.52 1020.71 1020.93
1012.85 1013.14 1013.49 1013.89 1014.07 1014.29 1014.44 1014.62 1014.79 1014.92 1015.02 1015.14 1015.28 1015.46 1015.68 1015.94 1016.09 1016.35 1016.54 1016.86 1017.09 1017.41 1017.70 1017.90 1018.15 1018.46 1018.70 1018.86 1019.09 1019.31 1019.43 1019.34 1019.53 1019.33 1019.50 1019.78 1019.96 1020.18 1020.42 1020.63 1020.87 1021.01 1021.23
1013.08 1013.32 1013.46 1013.56 1013.74 1014.22 1014.40 1014.57 1014.82 1014.96 1015.05 1015.16 1015.25 1015.37 1015.55 1015.81 1016.02 1016.18 1016.47 1016.71 1017.01 1017.31 1017.63 1017.91 1018.14 1018.44 1018.71 1018.89 1019.11 1019.34 1019.51 1019.53 1019.66 1019.49 1019.69 1019.91 1020.06 1020.25 1020.52 1020.75 1020.98 1021.19 1021.36
1013.28 1013.51 1013.51 1013.67 1013.74 1013.87 1014.07 1014.57 1014.68 1014.83 1014.95 1015.06 1015.19 1015.29 1015.46 1015.62 1015.78 1015.98 1016.22 1016.50 1016.83 1017.12 1017.47 1017.79 1018.07 1018.37 1018.66 1018.88 1019.10 1019.32 1019.46 1019.49 1019.51 1019.58 1019.79 1019.98 1020.02 1020.25 1020.54 1020.66 1020.95 1021.24 1021.46
1013.42 1013.39 1013.48 1013.75 1013.85 1013.94 1013.96 1014.17 1014.42 1014.57 1014.66 1014.75 1014.81 1014.89 1015.21 1015.29 1015.34 1015.51 1015.85 1016.22 1016.59 1016.89 1017.24 1017.60 1017.96 1018.24 1018.60 1018.86 1019.15 1019.37 1019.45 1019.19 1019.25 1019.34 1019.73 1019.99 1020.14 1020.24 1020.53 1020.69 1020.91 1021.13 1021.34
1013.05 1013.10 1013.29 1013.58 1013.76 1013.99 1014.17 1014.20 1014.31 1014.31 1014.38 1014.45 1014.37 1014.50 1014.62 1014.69 1014.99 1015.15 1015.48 1016.00 1016.44 1016.81 1017.17 1017.47 1017.81 1018.14 1018.41 1018.45 1018.77 1019.17 1019.24 1018.98 1018.99 1018.80 1019.25 1019.65 1020.05 1020.17 1020.44 1020.68 1020.88 1021.09 1021.31
1012.87 1012.99 1013.18 1013.40 1013.71 1013.88 1014.10 1014.28 1014.34 1014.33 1014.27 1014.39 1014.40 1014.31 1014.43 1014.41 1014.58 1014.95 1015.35 1015.75 1016.24 1016.55 1016.92 1017.21 1017.47 1017.78 1018.09 1018.15 1018.21 1018.53 1018.76 1018.70 1018.59 1018.60 1018.90 1019.37 1019.77 1020.07 1020.35 1020.61 1020.78 1020.96 1021.20
1012.66 1012.82 1012.99 1013.25 1013.54 1013.71 1013.98 1014.16 1014.28 1014.36 1014.38 1014.37 1014.37 1014.39 1014.43 1014.66 1015.14 1015.15 1015.47 1015.78 1015.99 1016.27 1016.62 1016.88 1017.11 1017.36 1017.68 1017.95 1017.92 1018.00 1018.18 1018.27 1018.35 1018.59 1018.93 1019.36 1019.68 1019.94 1020.20 1020.48 1020.68 1020.86 1021.03
1012.37 1012.57 1012.61 1012.94 1013.27 1013.39 1013.83 1014.10 1014.21 1014.28 1014.33 1014.40 1014.49 1014.40 1014.35 1014.62 1014.92 1015.19 1015.44 1015.53 1015.66 1015.87 1016.16 1016.55 1016.78 1016.99 1017.26 1017.54 1017.67 1017.70 1017.65 1017.79 1017.94 1018.30 1018.79 1019.27 1019.59 1019.91 1020.13 1020.37 1020.52 1020.76 1020.89
1011.93 1012.23 1012.51 1012.69 1012.98 1013.30 1013.62 1013.83 1013.95 1014.16 1014.19 1014.43 1014.44 1014.42 1014.47 1014.56 1014.76 1014.95 1015.28 1015.62 1015.62 1015.69 1015.90 1016.21 1016.59 1016.91 1017.19 1017.27 1017.51 1017.39 1017.43 1017.40 1017.56 1017.89 1018.60 1019.05 1019.51 1019.88 1020.07 1020.24 1020.30 1020.49 1020.68
1011.53 1011.90 1012.19 1012.55 1012.91 1013.22 1013.47 1013.67 1013.78 1013.95 1014.12 1014.32 1014.37 1014.42 1014.40 1014.56 1014.68 1014.96 1015.33 1015.52 1015.50 1015.63 1015.76 1016.24 1016.47 1016.83 1017.02 1017.20 1017.45 1017.47 1017.67 1017.67 1017.55 1017.64 1018.25 1018.74 1019.29 1019.73 1020.02 1020.13 1020.27 1020.34 1020.40
1011.05 1011.55 1012.01 1012.34 1012.87 1013.15 1013.33 1013.48 1013.66 1013.82 1014.07 1014.14 1014.12 1014.24 1014.39 1014.47 1014.69 1015.02 1015.22 1015.40 1015.47 1015.75 1016.06 1016.22 1016.25 1016.55 1016.89 1017.08 1017.34 1017.59 1017.84 1017.94 1018.34 1017.75 1017.83 1018.27 1018.89 1019.43 1019.94 1020.11 1020.16 1020.36 1020.30
1010.61 1011.09 1011.62 1012.07 1012.54 1012.90 1013.15 1013.42 1013.70 1013.93 1014.05 1014.04 1014.02 1014.06 1014.21 1014.39 1014.59 1014.87 1015.04 1015.22 1015.38 1015.76 1015.91 1016.15 1016.31 1016.47 1016.67 1016.83 1017.17 1017.51 1017.76 1017.91 1018.04 1018.18 1017.44 1017.73 1018.30 1018.96 1019.54 1019.98 1020.23 1020.26 1020.35
1010.25 1010.98 1011.59 1011.99 1012.29 1012.73 1013.15 1013.49 1013.78 1014.04 1014.22 1014.21 1014.02 1013.90 1014.04 1014.32 1014.53 1014.76 1014.89 1015.02 1015.19 1015.58 1015.72 1015.90 1016.13 1016.44 1016.62 1016.96 1017.05 1017.56 1018.06 1017.95 1018.04 1018.25 1018.24 1017.50 1017.77 1018.33 1019.04 1019.62 1020.04 1020.24 1020.38
1010.27 1010.87 1011.49 1011.92 1012.19 1012.53 1012.80 1013.03 1013.29 1013.68 1013.98 1014.19 1014.14 1014.06 1013.96 1014.15 1014.50 1014.72 1014.89 1014.98 1015.08 1015.28 1015.47 1015.69 1015.87 1016.22 1016.67 1016.61 1017.10 1017.38 1017.79 1018.47 1018.14 1018.11 1018.25 1018.11 1017.99 1017.95 1018.61 1019.32 1019.74 1019.90 1020.35
1010.54 1010.98 1011.43 1011.83 1012.05 1012.29 1012.56 1012.85 1013.18 1013.45 1013.83 1014.19 1014.10 1013.94 1013.83 1014.03 1014.19 1014.53 1014.78 1014.82 1015.01 1015.06 1015.24 1015.37 1015.54 1015.79 1016.15 1016.37 1016.53 1016.83 1017.66 1017.53 1017.95 1018.29 1018.27 1017.97 1018.18 1018.54 1018.19 1018.88 1019.47 1019.56 1020.07
1011.10 1011.36 1011.66 1011.89 1012.09 1012.12 1012.34 1012.86 1013.33 1013.64 1013.96 1013.80 1013.71 1013.51 1013.46 1013.49 1013.90 1014.25 1014.65 1014.73 1014.89 1015.11 1014.99 1015.07 1015.18 1015.26 1015.53 1015.89 1016.23 1016.38 1016.80 1016.52 1017.55 1018.26 1018.27 1018.09 1018.06 1018.15 1018.31 1019.03 1019.25 1019.30 1019.32
1012.23 1012.45 1012.51 1012.45 1012.34 1012.18 1012.35 1012.79 1013.28 1013.52 1013.65 1013.47 1013.28 1013.01 1013.07 1013.16 1013.38 1013.85 1014.37 1014.64 1014.76 1014.88 1015.04 1014.93 1014.92 1014.92 1015.00 1015.37 1015.52 1016.02 1016.49 1016.83 1016.68 1017.00 1017.78 1018.20 1018.43 1018.15 1018.19 1018.48 1018.71 1019.08 1019.39
1013.51 1013.41 1013.27 1013.01 1012.65 1012.34 1012.31 1012.54 1012.65 1013.08 1013.55 1013.50 1013.35 1013.24 1013.11 1013.13 1013.22 1013.46 1013.74 1014.15 1014.31 1014.52 1014.74 1014.81 1014.75 1014.60 1014.59 1014.66 1014.85 1015.09 1015.13 1015.79 1016.50 1016.56 1016.64 1017.48 1017.71 1017.48 1017.96 1018.16 1018.44 1018.60 1019.34
Wind_Speed
8 10 10 9 8 7 8 8 7 9 10 10 10 11 10 9 9 10 10 9 9 10 11 12 12 11 12 12 13 13 13 13 12 12 11 11 11 12 10 14 12 10 16
13 12 11 9 9 7 7 8 7 6 8 9 10 10 10 11 9 9 9 9 9 10 11 11 11 11 12 12 12 12 12 12 12 11 11 10 9 9 3 11 12 11 16
14 12 10 9 7 7 6 5 6 5 5 8 9 9 9 10 10 9 9 9 7 8 9 10 10 11 12 11 10 10 11 9 9 10 12 6 5 9 14 14 12 13 14
13 12 10 9 8 7 5 5 4 3 4 4 6 7 8 10 10 9 9 7 8 8 10 11 12 11 11 11 9 9 9 6 7 7 4 7 7 8 10 12 12 14 14
14 12 10 9 8 7 6 5 4 3 2 2 3 7 7 9 9 10 8 7 7 8 9 11 12 11 10 10 9 9 8 4 4 5 4 6 5 7 8 10 12 12 12
13 11 9 7 5 5 5 5 5 4 3 4 3 4 5 7 10 10 9 7 7 9 10 11 11 10 9 9 9 9 7 4 6 3 8 11 7 13 12 16 14 13 13
11 11 8 9 7 5 4 3 3 4 4 4 4 5 5 7 8 8 8 9 7 8 9 11 11 10 9 8 8 8 7 6 5 5 8 7 6 12 13 12 14 14 14
9 8 8 8 8 7 4 2 1 2 3 4 5 5 6 6 7 6 7 8 8 8 9 10 10 10 10 9 7 6 6 7 4 2 7 5 10 10 11 10 10 11 10
7 4 5 7 7 8 7 5 2 1 3 4 6 6 6 6 7 8 7 8 9 10 10 10 10 10 9 8 7 5 5 7 3 3 7 4 10 10 9 9 8 8 9
4 3 1 1 3 7 6 8 4 1 3 5 6 6 6 6 6 7 8 8 9 10 10 10 10 10 9 8 7 6 5 6 4 5 4 4 8 10 9 8 7 8 7
2 3 1 3 1 2 3 6 5 6 5 6 6 7 5 4 6 7 7 8 11 11 11 11 11 11 10 8 8 7 6 4 5 4 3 9 9 10 10 10 9 8 8
6 5 5 3 2 3 3 1 4 6 5 5 6 7 5 6 6 9 9 11 11 12 11 12 11 11 8 4 3 5 3 5 4 6 4 10 9 10 9 9 9 9 9
7 3 6 4 2 2 2 1 1 2 3 3 5 4 7 6 4 3 3 4 4 7 4 8 7 4 6 6 6 5 5 6 3 5 10 14 11 10 10 10 9 9 10
5 5 3 6 5 4 1 1 3 2 1 1 2 3 3 1 2 3 2 4 4 3 6 6 5 7 7 8 5 8 8 6 4 3 8 15 13 11 11 11 11 12 12
7 7 7 6 6 5 4 2 2 2 2 3 3 3 2 1 1 0 2 3 4 4 4 6 6 7 8 8 8 6 9 9 7 4 5 12 11 9 10 11 14 14 14
6 7 8 8 7 6 5 4 3 2 3 2 2 2 1 1 2 3 1 3 3 4 4 5 6 7 7 7 9 8 9 7 6 6 5 6 11 9 7 11 15 15 16
7 8 8 8 8 6 6 4 3 3 2 2 3 4 4 3 2 2 4 2 2 3 4 4 5 4 4 5 7 5 4 6 5 5 7 5 5 7 8 13 14 15 16
7 8 8 6 7 6 5 4 2 3 3 3 3 3 4 3 3 1 0 1 1 2 2 3 3 5 4 5 4 3 2 5 3 5 6 6 5 4 5 9 8 13 16
9 8 8 8 7 7 5 4 3 3 3 3 3 3 3 4 5 4 2 3 3 3 2 2 3 4 5 4 4 3 2 4 5 5 6 7 7 5 4 7 8 7 9
8 8 8 7 8 6 4 4 2 2 2 3 3 3 4 2 3 5 3 3 1 2 4 2 4 3 4 6 6 4 3 3 2 4 5 7 8 7 6 6 4 5 6
8 7 8 8 6 4 2 3 2 2 2 2 3 3 3 3 4 4 4 5 4 3 3 4 4 4 5 3 5 2 1 2 3 3 5 3 8 6 8 7 4 3 4
7 6 7 7 7 5 4 3 3 4 3 3 3 4 3 5 5 3 3 3 4 4 5 4 4 3 3 4 2 1 3 1 2 3 3 4 5 5 7 8 8 7 5
5 6 6 6 7 5 6 3 2 3 3 1 4 4 5 5 5 5 5 3 4 3 4 5 5 7 4 4 5 5 1 3 3 1 3 3 5 5 6 8 8 8 7
2 4 3 3 4 4 7 4 4 4 4 4 5 4 5 8 6 5 5 5 4 4 4 5 4 4 5 5 3 4 1 3 4 2 2 2 4 5 6 5 8 8 10
7 4 2 3 3 4 7 7 6 6 3 3 3 4 5 6 7 7 6 5 5 4 5 5 6 5 6 5 6 3 3 1 1 4 4 3 2 2 5 8 7 7 7
5 5 4 4 3 3 5 9 9 8 8 5 5 3 2 1 2 5 5 5 6 6 8 6 6 6 6 7 7 8 7 6 3 2 3 8 10 6 3 4 8 7 7
Wind_Direction
120 124 123 118 111 108 91 94 121 141 142 143 142 139 134 128 121 115 116 114 118 117 116 117 115 109 105 103 102 100 97 98 100 93 95 93 101 104 108 102 96 88 91
127 121 134 126 118 104 97 88 78 118 144 145 152 152 154 144 134 127 127 127 128 126 124 122 129 123 114 110 106 102 96 101 101 96 89 79 85 81 79 99 97 95 91
118 123 125 128 119 114 107 97 86 76 128 152 162 165 172 150 146 142 138 141 137 144 138 124 121 123 115 111 109 111 113 118 130 139 141 122 85 88 93 103 111 105 99
125 128 114 114 124 123 121 118 102 91 88 143 171 173 168 159 154 152 153 148 131 127 131 128 129 119 118 117 116 128 125 157 158 166 204 133 121 114 109 111 119 116 111
100 100 105 104 117 123 124 134 143 146 130 129 156 179 182 175 171 168 167 166 151 140 134 133 134 132 131 129 126 131 140 191 215 221 253 123 103 148 135 148 123 122 119
102 101 92 89 113 121 125 133 148 164 186 192 171 177 187 190 188 189 186 171 164 141 144 145 138 133 133 140 140 139 151 209 252 300 83 92 95 117 105 128 115 113 116
107 115 105 99 86 140 130 139 158 170 184 183 204 199 206 209 201 203 196 176 174 154 156 155 152 148 147 152 156 158 165 212 265 309 99 102 116 107 106 111 108 105 105
100 112 132 126 110 105 102 96 174 205 212 201 194 215 218 224 226 212 195 183 178 176 173 167 160 158 159 161 166 171 195 220 243 211 98 107 124 129 117 108 109 115 117
78 85 131 149 144 142 136 127 134 284 281 229 209 209 218 215 225 216 212 196 182 179 180 171 164 167 169 168 161 168 228 254 302 109 110 123 134 136 130 129 132 130 135
91 42 340 156 161 163 161 143 135 227 246 253 235 219 212 210 213 210 211 209 190 181 180 179 172 173 179 174 158 181 220 260 279 102 122 134 151 143 142 142 150 151 156
146 186 248 319 287 261 125 148 168 204 219 232 231 224 214 213 202 205 194 192 192 186 183 184 185 179 175 182 178 187 209 227 179 132 123 156 164 155 155 152 160 167 178
214 213 169 203 288 345 338 144 211 178 196 208 211 197 197 204 216 190 188 192 192 190 186 187 186 177 166 166 179 187 228 245 182 159 158 167 177 171 166 159 166 173 177
205 186 152 153 185 227 263 271 304 253 198 249 266 232 194 195 203 195 169 181 173 187 189 193 187 175 186 191 175 182 225 252 216 177 164 165 182 181 175 174 172 182 177
202 203 186 178 179 210 222 259 231 268 287 279 275 307 319 270 155 156 161 169 182 183 186 182 187 189 193 221 198 184 201 240 250 146 164 162 176 187 192 191 183 185 178
214 195 201 176 177 191 176 245 286 294 305 249 285 289 279 85 56 105 207 202 207 195 193 191 192 190 192 214 235 209 196 227 237 128 143 163 173 183 201 208 198 191 184
213 199 192 183 179 180 172 198 216 259 256 271 268 231 272 326 192 169 238 244 222 208 198 189 200 196 197 199 227 233 206 213 208 147 156 168 171 179 199 209 197 198 195
205 203 196 178 174 178 186 195 195 221 238 273 254 244 190 213 268 187 183 201 232 243 227 209 203 205 198 202 221 233 246 211 188 181 151 155 158 182 208 218 210 204 200
188 188 176 164 170 183 183 178 200 223 189 227 246 256 205 200 150 336 182 231 242 333 220 228 201 203 207 183 204 234 259 330 252 179 150 146 153 169 206 211 207 220 214
186 178 170 161 179 191 187 167 185 239 207 236 219 215 256 197 170 167 205 215 221 203 184 240 217 195 197 181 190 192 222 160 280 245 161 145 154 157 177 205 187 196 220
182 182 166 168 180 181 165 160 167 226 234 252 225 201 234 225 219 174 186 193 242 297 186 167 233 196 212 197 197 204 227 213 209 319 182 158 162 163 168 171 177 176 194
173 175 165 159 173 156 159 165 163 158 284 277 231 229 217 244 248 215 198 196 195 205 231 195 181 208 208 205 198 177 223 177 219 200 299 180 161 158 161 160 162 162 168
167 176 169 177 175 175 168 183 169 153 199 209 257 261 234 219 242 242 239 244 209 202 237 231 207 171 222 180 166 237 171 191 239 194 220 206 180 163 155 164 166 156 152
168 180 179 178 188 188 168 141 73 44 48 245 232 195 205 250 232 210 229 233 251 224 217 214 208 199 184 189 206 142 153 212 135 111 229 180 194 186 155 171 172 161 155
113 115 132 169 184 187 143 130 192 197 198 215 215 212 199 203 214 196 218 225 259 284 238 228 220 197 196 198 197 223 328 150 177 172 260 206 202 175 154 173 174 172 153
47 40 306 239 215 193 146 154 201 225 252 270 266 229 180 184 186 196 217 231 220 233 278 261 238 222 199 189 203 161 154 278 338 144 181 179 208 219 182 176 170 169 170
7 329 298 278 264 215 189 184 184 199 241 257 291 294 268 235 235 198 217 221 230 242 249 265 276 242 219 210 204 212 203 191 193 186 124 195 202 195 174 166 177 177 188